• In Hungary
  • List of Countries
  • For 7 days
  • Water Temperature
  • Satellite Maps
  • Weather Map
  • News
  • Weather Widgets
  • user-avatar
    Login

    Hourly Weather Syracuse

    Today, 24 January, Wednesday

    Time Temperature Precipitation Wind Pressure Humidity
    00:00 -4°C° 0.1 mm 8 mps 741 mmHg 77%
    01:00 -5°C° 0.1 mm 8 mps 742 mmHg 77%
    02:00 -6°C° 0.1 mm 8 mps 743 mmHg 77%
    03:00 -6°C° 0.1 mm 8 mps 744 mmHg 78%
    04:00 -7°C° 0.1 mm 8 mps 744 mmHg 78%
    05:00 -8°C° 0 mm 7 mps 745 mmHg 77%
    06:00 -9°C° 0 mm 7 mps 746 mmHg 76%
    07:00 -9°C° 0 mm 7 mps 747 mmHg 74%
    08:00 -9°C° 0 mm 7 mps 748 mmHg 72%
    09:00 -9°C° 0 mm 7 mps 749 mmHg 71%
    10:00 -10°C° 0 mm 6 mps 750 mmHg 69%
    11:00 -9°C° 0 mm 6 mps 750 mmHg 68%
    12:00 -9°C° 0 mm 6 mps 750 mmHg 66%
    13:00 -8°C° 0 mm 5 mps 750 mmHg 65%
    14:00 -8°C° 0 mm 5 mps 751 mmHg 66%
    15:00 -8°C° 0 mm 5 mps 751 mmHg 67%
    16:00 -8°C° 0 mm 5 mps 751 mmHg 67%
    17:00 -8°C° 0 mm 4 mps 752 mmHg 68%
    18:00 -9°C° 0 mm 4 mps 752 mmHg 69%
    19:00 -9°C° 0 mm 4 mps 753 mmHg 70%
    20:00 -9°C° 0 mm 4 mps 753 mmHg 69%
    21:00 -9°C° 0 mm 4 mps 754 mmHg 68%
    22:00 -9°C° 0 mm 4 mps 754 mmHg 67%
    23:00 -9°C° 0 mm 4 mps 754 mmHg 67%

    Tomorrow, 25 January, Thursday

    Time Temperature Precipitation Wind Pressure Humidity
    00:00 -10°C° 0 mm 4 mps 754 mmHg 67%
    01:00 -10°C° 0 mm 4 mps 755 mmHg 66%
    02:00 -10°C° 0 mm 4 mps 755 mmHg 67%
    03:00 -11°C° 0 mm 4 mps 755 mmHg 68%
    04:00 -10°C° 0 mm 3 mps 756 mmHg 69%
    05:00 -12°C° 0 mm 3 mps 756 mmHg 70%
    06:00 -12°C° 0 mm 3 mps 757 mmHg 71%
    07:00 -12°C° 0 mm 3 mps 758 mmHg 72%
    08:00 -12°C° 0 mm 3 mps 758 mmHg 68%
    09:00 -10°C° 0 mm 3 mps 759 mmHg 64%
    10:00 -10°C° 0 mm 3 mps 759 mmHg 60%
    11:00 -8°C° 0 mm 2 mps 759 mmHg 56%
    12:00 -7°C° 0 mm 2 mps 759 mmHg 51%
    13:00 -6°C° 0 mm 2 mps 759 mmHg 46%
    14:00 -6°C° 0 mm 2 mps 759 mmHg 45%
    15:00 -6°C° 0 mm 2 mps 759 mmHg 45%
    16:00 -6°C° 0 mm 2 mps 759 mmHg 44%
    17:00 -4°C° 0 mm 1 mps 760 mmHg 48%
    18:00 -6°C° 0 mm 1 mps 760 mmHg 52%
    19:00 -6°C° 0 mm 1 mps 761 mmHg 56%
    20:00 -6°C° 0 mm 1 mps 761 mmHg 56%
    21:00 -6°C° 0 mm 1 mps 761 mmHg 56%
    22:00 -6°C° 0 mm 0 mps 761 mmHg 56%
    23:00 -6°C° 0 mm 0 mps 761 mmHg 58%

    Day after tomorrow, 26 January, Friday

    Time Temperature Precipitation Wind Pressure Humidity
    00:00 -6°C° 0 mm 0 mps 761 mmHg 60%
    01:00 -6°C° 0 mm 0 mps 761 mmHg 62%
    02:00 -6°C° 0 mm 1 mps 761 mmHg 64%
    03:00 -6°C° 0 mm 1 mps 761 mmHg 66%
    04:00 -7°C° 0 mm 1 mps 762 mmHg 68%
    05:00 -7°C° 0 mm 1 mps 762 mmHg 70%
    06:00 -7°C° 0 mm 1 mps 762 mmHg 71%
    07:00 -8°C° 0 mm 2 mps 762 mmHg 73%
    08:00 -6°C° 0 mm 2 mps 762 mmHg 69%
    09:00 -5°C° 0 mm 2 mps 763 mmHg 65%
    10:00 -5°C° 0 mm 3 mps 763 mmHg 61%
    11:00 -2°C° 0 mm 3 mps 762 mmHg 59%
    12:00 -2°C° 0 mm 4 mps 761 mmHg 57%
    13:00 0°C° 0 mm 4 mps 760 mmHg 54%
    14:00 0°C° 0 mm 4 mps 760 mmHg 56%
    15:00 0°C° 0 mm 4 mps 759 mmHg 58%
    16:00 +1°C° 0 mm 4 mps 759 mmHg 60%
    17:00 0°C° 0 mm 4 mps 759 mmHg 62%
    18:00 0°C° 0 mm 5 mps 758 mmHg 65%
    19:00 0°C° 0 mm 5 mps 758 mmHg 68%
    20:00 0°C° 0 mm 5 mps 758 mmHg 69%
    21:00 -1°C° 0 mm 6 mps 757 mmHg 69%
    22:00 -1°C° 0 mm 6 mps 757 mmHg 70%
    23:00 -1°C° 0 mm 6 mps 757 mmHg 69%

    27 January, Saturday

    Time Temperature Precipitation Wind Pressure Humidity
    00:00 -1°C° 0 mm 6 mps 756 mmHg 68%
    01:00 -1°C° 0 mm 6 mps 756 mmHg 67%
    02:00 -1°C° 0 mm 6 mps 756 mmHg 67%
    03:00 +1°C° 0 mm 5 mps 755 mmHg 67%
    04:00 +1°C° 0 mm 5 mps 755 mmHg 66%
    05:00 +1°C° 0 mm 5 mps 755 mmHg 66%
    06:00 +1°C° 0 mm 5 mps 754 mmHg 65%
    07:00 +1°C° 0 mm 5 mps 754 mmHg 65%
    08:00 +2°C° 0.1 mm 5 mps 754 mmHg 65%
    09:00 +2°C° 0.1 mm 5 mps 754 mmHg 65%
    10:00 +2°C° 0.1 mm 5 mps 754 mmHg 66%
    11:00 +3°C° 0.3 mm 5 mps 754 mmHg 67%
    12:00 +3°C° 0.3 mm 5 mps 753 mmHg 69%
    13:00 +5°C° 0.3 mm 4 mps 753 mmHg 70%
    14:00 +4°C° 0.4 mm 4 mps 753 mmHg 75%
    15:00 +4°C° 0.4 mm 4 mps 753 mmHg 80%
    16:00 +4°C° 0.4 mm 3 mps 753 mmHg 85%
    17:00 +4°C° 0.1 mm 4 mps 753 mmHg 86%
    18:00 +3°C° 0.1 mm 4 mps 753 mmHg 86%
    19:00 +3°C° 0.1 mm 4 mps 753 mmHg 87%
    20:00 +3°C° 0 mm 3 mps 753 mmHg 88%
    21:00 +3°C° 0 mm 3 mps 753 mmHg 89%
    22:00 +3°C° 0 mm 3 mps 753 mmHg 90%
    23:00 +3°C° 0.1 mm 3 mps 752 mmHg 91%

    28 January, Sunday

    Time Temperature Precipitation Wind Pressure Humidity
    00:00 +2°C° 0.1 mm 3 mps 752 mmHg 92%
    01:00 +3°C° 0.1 mm 2 mps 751 mmHg 93%
    02:00 +3°C° 1.3 mm 2 mps 751 mmHg 94%
    03:00 +3°C° 1.3 mm 2 mps 750 mmHg 95%
    04:00 +3°C° 1.3 mm 2 mps 749 mmHg 95%
    05:00 +3°C° 1 mm 2 mps 749 mmHg 95%
    06:00 +3°C° 1 mm 2 mps 749 mmHg 96%
    07:00 +4°C° 1 mm 1 mps 748 mmHg 96%
    08:00 +4°C° 0.4 mm 1 mps 748 mmHg 96%
    09:00 +4°C° 0.4 mm 2 mps 748 mmHg 95%
    10:00 +4°C° 0.4 mm 2 mps 749 mmHg 95%
    11:00 +3°C° 0.4 mm 3 mps 748 mmHg 93%
    12:00 +3°C° 0.4 mm 4 mps 748 mmHg 91%
    13:00 +2°C° 0.4 mm 5 mps 748 mmHg 89%
    14:00 +2°C° 0 mm 5 mps 749 mmHg 86%
    15:00 +2°C° 0 mm 5 mps 749 mmHg 83%
    16:00 +1°C° 0 mm 5 mps 750 mmHg 80%
    17:00 +1°C° 0 mm 4 mps 750 mmHg 82%
    18:00 +1°C° 0 mm 3 mps 751 mmHg 85%
    19:00 0°C° 0 mm 3 mps 752 mmHg 87%
    20:00 -1°C° 0.1 mm 3 mps 752 mmHg 86%
    21:00 -1°C° 0.1 mm 3 mps 752 mmHg 85%
    22:00 -1°C° 0.1 mm 3 mps 752 mmHg 84%
    23:00 -1°C° 0.1 mm 3 mps 752 mmHg 85%

    29 January, Monday

    Time Temperature Precipitation Wind Pressure Humidity
    00:00 -2°C° 0.1 mm 3 mps 752 mmHg 85%
    01:00 -2°C° 0.1 mm 3 mps 752 mmHg 86%
    02:00 -2°C° 0.1 mm 3 mps 752 mmHg 86%
    03:00 -4°C° 0.1 mm 3 mps 752 mmHg 86%
    04:00 -4°C° 0.1 mm 3 mps 752 mmHg 86%
    05:00 -4°C° 0 mm 3 mps 752 mmHg 86%
    06:00 -5°C° 0 mm 3 mps 752 mmHg 85%
    07:00 -5°C° 0 mm 3 mps 752 mmHg 84%
    08:00 -6°C° 0 mm 3 mps 752 mmHg 81%
    09:00 -7°C° 0 mm 4 mps 752 mmHg 79%
    10:00 -7°C° 0 mm 4 mps 753 mmHg 76%
    11:00 -7°C° 0.1 mm 4 mps 752 mmHg 74%
    12:00 -7°C° 0.1 mm 4 mps 752 mmHg 73%
    13:00 -7°C° 0.1 mm 4 mps 752 mmHg 71%
    14:00 -8°C° 0 mm 5 mps 752 mmHg 71%
    15:00 -8°C° 0 mm 5 mps 752 mmHg 72%
    16:00 -10°C° 0 mm 5 mps 753 mmHg 72%
    17:00 -10°C° 0.1 mm 5 mps 753 mmHg 72%
    18:00 -11°C° 0.1 mm 5 mps 754 mmHg 73%
    19:00 -11°C° 0.1 mm 5 mps 755 mmHg 73%
    20:00 -12°C° 0.1 mm 5 mps 755 mmHg 72%
    21:00 -12°C° 0.1 mm 5 mps 755 mmHg 72%
    22:00 -12°C° 0.1 mm 5 mps 755 mmHg 71%
    23:00 -13°C° 0 mm 5 mps 755 mmHg 70%
    Show more